Time,TemperatureF,DewpointF,PressureIn,WindDirection,WindDirectionDegrees,WindSpeedMPH,WindSpeedGustMPH,Humidity,HourlyPrecipIn,Conditions,Clouds,dailyrainin,SolarRadiationWatts/m^2,SoftwareType,DateUTC
2013-06-01 00:03:00,65.0,62.0,-100.00,ESE,123,2.0,4.0,90,0.00,,,0.00,0.000000,,2013-06-01 04:03:00,
2013-06-01 00:12:00,65.0,62.0,-100.00,ESE,123,2.0,4.0,90,0.00,,,0.00,0.000000,,2013-06-01 04:12:00,
2013-06-01 00:23:00,65.0,62.0,-100.00,ESE,123,2.0,4.0,90,0.00,,,0.00,0.000000,,2013-06-01 04:23:00,
2013-06-01 00:53:00,63.0,61.0,-100.00,SE,129,1.0,4.0,93,0.00,,,0.00,0.000000,,2013-06-01 04:53:00,
2013-06-01 01:02:00,63.0,61.0,-100.00,SE,129,1.0,4.0,93,0.00,,,0.00,0.000000,,2013-06-01 05:02:00,
2013-06-01 01:12:00,63.0,61.0,-100.00,SE,129,1.0,4.0,93,0.00,,,0.00,0.000000,,2013-06-01 05:12:00,
2013-06-01 01:22:00,63.0,61.0,-100.00,SE,129,1.0,4.0,93,0.00,,,0.00,0.000000,,2013-06-01 05:22:00,
2013-06-01 01:52:00,61.0,60.0,-100.00,South,187,1.0,3.0,97,0.00,,,0.00,0.000000,,2013-06-01 05:52:00,
2013-06-01 02:01:00,61.0,60.0,-100.00,South,187,1.0,3.0,97,0.00,,,0.00,0.000000,,2013-06-01 06:01:00,
2013-06-01 02:12:00,61.0,60.0,-100.00,South,187,1.0,3.0,97,0.00,,,0.00,0.000000,,2013-06-01 06:12:00,
2013-06-01 02:22:00,61.0,60.0,-100.00,South,187,1.0,3.0,97,0.00,,,0.00,0.000000,,2013-06-01 06:22:00,
2013-06-01 02:52:00,59.0,59.0,-100.00,South,174,1.0,3.0,99,0.00,,,0.00,0.000000,,2013-06-01 06:52:00,
2013-06-01 03:01:00,59.0,59.0,-100.00,South,174,1.0,3.0,99,0.00,,,0.00,0.000000,,2013-06-01 07:01:00,
2013-06-01 03:11:00,59.0,59.0,-100.00,South,174,1.0,3.0,99,0.00,,,0.00,0.000000,,2013-06-01 07:11:00,
2013-06-01 03:22:00,59.0,59.0,-100.00,South,174,1.0,3.0,99,0.00,,,0.00,0.000000,,2013-06-01 07:22:00,
2013-06-01 03:52:00,58.0,58.0,-100.00,SE,141,1.0,3.0,100,0.00,,,0.00,0.000000,,2013-06-01 07:52:00,
2013-06-01 04:02:00,58.0,58.0,-100.00,SE,141,1.0,3.0,100,0.00,,,0.00,0.000000,,2013-06-01 08:02:00,
2013-06-01 04:11:00,58.0,58.0,-100.00,SE,141,1.0,3.0,100,0.00,,,0.00,0.000000,,2013-06-01 08:11:00,
2013-06-01 04:22:00,58.0,58.0,-100.00,SE,141,1.0,3.0,100,0.00,,,0.00,0.000000,,2013-06-01 08:22:00,
2013-06-01 04:52:00,57.0,57.0,-100.00,ESE,116,0.0,3.0,100,0.00,,,0.00,0.000000,,2013-06-01 08:52:00,
2013-06-01 05:02:00,57.0,57.0,-100.00,ESE,116,0.0,3.0,100,0.00,,,0.00,0.000000,,2013-06-01 09:02:00,
2013-06-01 05:12:00,57.0,57.0,-100.00,ESE,116,0.0,3.0,100,0.00,,,0.00,0.000000,,2013-06-01 09:12:00,
2013-06-01 05:22:00,57.0,57.0,-100.00,ESE,116,0.0,3.0,100,0.00,,,0.00,0.000000,,2013-06-01 09:22:00,
2013-06-01 05:53:00,57.0,57.0,-100.00,SW,228,1.0,3.0,100,0.00,,,0.00,2.000000,,2013-06-01 09:53:00,
2013-06-01 06:02:00,57.0,57.0,-100.00,SW,228,1.0,3.0,100,0.00,,,0.00,2.000000,,2013-06-01 10:02:00,
2013-06-01 06:13:00,57.0,57.0,-100.00,SW,228,1.0,3.0,100,0.00,,,0.00,2.000000,,2013-06-01 10:13:00,
2013-06-01 06:22:00,57.0,57.0,-100.00,SW,228,1.0,3.0,100,0.00,,,0.00,2.000000,,2013-06-01 10:22:00,
2013-06-01 06:53:00,58.0,58.0,-100.00,NNW,345,1.0,3.0,100,0.00,,,0.00,39.000000,,2013-06-01 10:53:00,
2013-06-01 07:03:00,58.0,58.0,-100.00,NNW,345,1.0,3.0,100,0.00,,,0.00,39.000000,,2013-06-01 11:03:00,
2013-06-01 07:11:00,58.0,58.0,-100.00,NNW,345,1.0,3.0,100,0.00,,,0.00,39.000000,,2013-06-01 11:11:00,
2013-06-01 07:22:00,58.0,58.0,-100.00,NNW,345,1.0,3.0,100,0.00,,,0.00,39.000000,,2013-06-01 11:22:00,
2013-06-01 07:52:00,65.0,61.0,-100.00,NNW,347,2.0,3.0,87,0.00,,,0.00,191.000000,,2013-06-01 11:52:00,
2013-06-01 08:01:00,65.0,61.0,-100.00,NNW,347,2.0,3.0,87,0.00,,,0.00,191.000000,,2013-06-01 12:01:00,
2013-06-01 08:12:00,65.0,61.0,-100.00,NNW,347,2.0,3.0,87,0.00,,,0.00,191.000000,,2013-06-01 12:12:00,
2013-06-01 08:22:00,65.0,61.0,-100.00,NNW,347,2.0,3.0,87,0.00,,,0.00,191.000000,,2013-06-01 12:22:00,
2013-06-01 08:52:00,73.0,64.0,-100.00,NW,313,2.0,5.0,74,0.00,,,0.00,336.000000,,2013-06-01 12:52:00,
2013-06-01 09:01:00,73.0,64.0,-100.00,NW,313,2.0,5.0,74,0.00,,,0.00,336.000000,,2013-06-01 13:01:00,
2013-06-01 09:12:00,73.0,64.0,-100.00,NW,313,2.0,5.0,74,0.00,,,0.00,336.000000,,2013-06-01 13:12:00,
2013-06-01 09:22:00,73.0,64.0,-100.00,NW,313,2.0,5.0,74,0.00,,,0.00,336.000000,,2013-06-01 13:22:00,
2013-06-01 09:52:00,78.0,66.0,-100.00,ESE,106,3.0,5.0,67,0.00,,,0.00,386.000000,,2013-06-01 13:52:00,
2013-06-01 10:02:00,78.0,66.0,-100.00,ESE,106,3.0,5.0,67,0.00,,,0.00,386.000000,,2013-06-01 14:02:00,
2013-06-01 10:11:00,78.0,66.0,-100.00,ESE,106,3.0,5.0,67,0.00,,,0.00,386.000000,,2013-06-01 14:11:00,
2013-06-01 10:21:00,78.0,66.0,-100.00,ESE,106,3.0,5.0,67,0.00,,,0.00,386.000000,,2013-06-01 14:21:00,
2013-06-01 10:52:00,81.0,64.0,-100.00,WSW,255,2.0,7.0,56,0.00,,,0.00,485.000000,,2013-06-01 14:52:00,
2013-06-01 11:02:00,81.0,64.0,-100.00,WSW,255,2.0,7.0,56,0.00,,,0.00,485.000000,,2013-06-01 15:02:00,
2013-06-01 11:11:00,81.0,64.0,-100.00,WSW,255,2.0,7.0,56,0.00,,,0.00,485.000000,,2013-06-01 15:11:00,
2013-06-01 11:22:00,81.0,64.0,-100.00,WSW,255,2.0,7.0,56,0.00,,,0.00,485.000000,,2013-06-01 15:22:00,
2013-06-01 11:54:00,85.0,64.0,-100.00,West,260,4.0,11.0,49,0.00,,,0.00,580.000000,,2013-06-01 15:54:00,
2013-06-01 12:03:00,85.0,64.0,-100.00,West,260,4.0,11.0,49,0.00,,,0.00,580.000000,,2013-06-01 16:03:00,
2013-06-01 12:12:00,85.0,64.0,-100.00,West,260,4.0,11.0,49,0.00,,,0.00,580.000000,,2013-06-01 16:12:00,
2013-06-01 12:23:00,85.0,64.0,-100.00,West,260,4.0,11.0,49,0.00,,,0.00,580.000000,,2013-06-01 16:23:00,
2013-06-01 12:53:00,88.0,61.0,-100.00,WSW,250,6.0,13.0,41,0.00,,,0.00,852.000000,,2013-06-01 16:53:00,
2013-06-01 13:02:00,88.0,61.0,-100.00,WSW,250,6.0,13.0,41,0.00,,,0.00,852.000000,,2013-06-01 17:02:00,
2013-06-01 13:12:00,88.0,61.0,-100.00,WSW,250,6.0,13.0,41,0.00,,,0.00,852.000000,,2013-06-01 17:12:00,
2013-06-01 13:22:00,88.0,61.0,-100.00,WSW,250,6.0,13.0,41,0.00,,,0.00,852.000000,,2013-06-01 17:22:00,
2013-06-01 13:52:00,86.0,60.0,-100.00,SW,234,4.0,14.0,42,0.00,,,0.00,791.000000,,2013-06-01 17:52:00,
2013-06-01 14:02:00,86.0,60.0,-100.00,SW,234,4.0,14.0,42,0.00,,,0.00,791.000000,,2013-06-01 18:02:00,
2013-06-01 14:12:00,86.0,60.0,-100.00,SW,234,4.0,14.0,42,0.00,,,0.00,791.000000,,2013-06-01 18:12:00,
2013-06-01 14:22:00,86.0,60.0,-100.00,SW,234,4.0,14.0,42,0.00,,,0.00,791.000000,,2013-06-01 18:22:00,
2013-06-01 14:52:00,85.0,61.0,-100.00,West,262,4.0,10.0,45,0.00,,,0.00,347.000000,,2013-06-01 18:52:00,
2013-06-01 15:02:00,85.0,61.0,-100.00,West,262,4.0,10.0,45,0.00,,,0.00,347.000000,,2013-06-01 19:02:00,
2013-06-01 15:12:00,85.0,61.0,-100.00,West,262,4.0,10.0,45,0.00,,,0.00,347.000000,,2013-06-01 19:12:00,
2013-06-01 15:21:00,85.0,61.0,-100.00,West,262,4.0,10.0,45,0.00,,,0.00,347.000000,,2013-06-01 19:21:00,
2013-06-01 15:53:00,91.0,58.0,-100.00,SSW,202,6.0,20.0,33,0.00,,,0.00,806.000000,,2013-06-01 19:53:00,
2013-06-01 16:02:00,91.0,58.0,-100.00,SSW,202,6.0,20.0,33,0.00,,,0.00,806.000000,,2013-06-01 20:02:00,
2013-06-01 16:12:00,91.0,58.0,-100.00,SSW,202,6.0,20.0,33,0.00,,,0.00,806.000000,,2013-06-01 20:12:00,
2013-06-01 16:22:00,91.0,58.0,-100.00,SSW,202,6.0,20.0,33,0.00,,,0.00,806.000000,,2013-06-01 20:22:00,
2013-06-01 16:52:00,86.0,57.0,-100.00,SSW,213,4.0,20.0,37,0.00,,,0.00,496.000000,,2013-06-01 20:52:00,
2013-06-01 17:02:00,86.0,57.0,-100.00,SSW,213,4.0,20.0,37,0.00,,,0.00,496.000000,,2013-06-01 21:02:00,
2013-06-01 17:12:00,86.0,57.0,-100.00,SSW,213,4.0,20.0,37,0.00,,,0.00,496.000000,,2013-06-01 21:12:00,
2013-06-01 17:22:00,86.0,57.0,-100.00,SSW,213,4.0,20.0,37,0.00,,,0.00,496.000000,,2013-06-01 21:22:00,
2013-06-01 17:53:00,86.0,60.0,-100.00,WSW,247,7.0,15.0,41,0.00,,,0.00,244.000000,,2013-06-01 21:53:00,
2013-06-01 18:03:00,86.0,60.0,-100.00,WSW,247,7.0,15.0,41,0.00,,,0.00,244.000000,,2013-06-01 22:03:00,
2013-06-01 18:12:00,86.0,60.0,-100.00,WSW,247,7.0,15.0,41,0.00,,,0.00,244.000000,,2013-06-01 22:12:00,
2013-06-01 18:23:00,86.0,60.0,-100.00,WSW,247,7.0,15.0,41,0.00,,,0.00,244.000000,,2013-06-01 22:23:00,
2013-06-01 18:53:00,84.0,61.0,-100.00,SW,229,4.0,14.0,46,0.00,,,0.00,270.000000,,2013-06-01 22:53:00,
2013-06-01 19:02:00,84.0,61.0,-100.00,SW,229,4.0,14.0,46,0.00,,,0.00,270.000000,,2013-06-01 23:02:00,
2013-06-01 19:12:00,84.0,61.0,-100.00,SW,229,4.0,14.0,46,0.00,,,0.00,270.000000,,2013-06-01 23:12:00,
2013-06-01 19:22:00,84.0,61.0,-100.00,SW,229,4.0,14.0,46,0.00,,,0.00,270.000000,,2013-06-01 23:22:00,
2013-06-01 19:52:00,80.0,62.0,-100.00,South,181,3.0,11.0,55,0.00,,,0.00,147.000000,,2013-06-01 23:52:00,
2013-06-01 20:02:00,80.0,62.0,-100.00,South,181,3.0,11.0,55,0.00,,,0.00,147.000000,,2013-06-02 00:02:00,
2013-06-01 20:11:00,80.0,62.0,-100.00,South,181,3.0,11.0,55,0.00,,,0.00,147.000000,,2013-06-02 00:11:00,
2013-06-01 20:22:00,80.0,62.0,-100.00,South,181,3.0,11.0,55,0.00,,,0.00,147.000000,,2013-06-02 00:22:00,
2013-06-01 20:52:00,77.0,62.0,-100.00,SSE,149,4.0,10.0,60,0.00,,,0.00,27.000000,,2013-06-02 00:52:00,
2013-06-01 21:02:00,77.0,62.0,-100.00,SSE,149,4.0,10.0,60,0.00,,,0.00,27.000000,,2013-06-02 01:02:00,
2013-06-01 21:11:00,77.0,62.0,-100.00,SSE,149,4.0,10.0,60,0.00,,,0.00,27.000000,,2013-06-02 01:11:00,
2013-06-01 21:22:00,77.0,62.0,-100.00,SSE,149,4.0,10.0,60,0.00,,,0.00,27.000000,,2013-06-02 01:22:00,
2013-06-01 21:52:00,75.0,62.0,-100.00,SSE,160,3.0,9.0,65,0.00,,,0.00,0.000000,,2013-06-02 01:52:00,
2013-06-01 22:02:00,75.0,62.0,-100.00,SSE,160,3.0,9.0,65,0.00,,,0.00,0.000000,,2013-06-02 02:02:00,
2013-06-01 22:12:00,75.0,62.0,-100.00,SSE,160,3.0,9.0,65,0.00,,,0.00,0.000000,,2013-06-02 02:12:00,
2013-06-01 22:21:00,75.0,62.0,-100.00,SSE,160,3.0,9.0,65,0.00,,,0.00,0.000000,,2013-06-02 02:21:00,
2013-06-01 22:52:00,73.0,64.0,-100.00,SE,125,2.0,7.0,74,0.00,,,0.00,0.000000,,2013-06-02 02:52:00,
2013-06-01 23:02:00,73.0,64.0,-100.00,SE,125,2.0,7.0,74,0.00,,,0.00,0.000000,,2013-06-02 03:02:00,
2013-06-01 23:11:00,73.0,64.0,-100.00,SE,125,2.0,7.0,74,0.00,,,0.00,0.000000,,2013-06-02 03:11:00,
2013-06-01 23:21:00,73.0,64.0,-100.00,SE,125,2.0,7.0,74,0.00,,,0.00,0.000000,,2013-06-02 03:21:00,
2013-06-01 23:53:00,70.0,64.0,-100.00,WNW,288,9.0,26.0,81,0.11,,,0.11,0.000000,,2013-06-02 03:53:00,